When you browse on this site, cookies collect data to enhance your experience and personalize the content and advertising you see.
Visit our Privacy Policy to learn more. By continuing to use the site, you agree to this use of cookies and data.
  • en France
  • Liste des pays
  • À 7 jours
  • Température de l'eau
  • Carte météo
  • Widgets météo
  • user-avatar
    Se connecter

    Météo par heure à Charlottetown

    Ce jour, 1 Juin, Lundi

    Heure Température Précipitation Vent Pression Humidité
    00:00 +9°C° 0 mm 3 m/s 758 mmHg 70%
    01:00 +8°C° 0 mm 3 m/s 758 mmHg 74%
    02:00 +7°C° 0 mm 2 m/s 758 mmHg 77%
    03:00 +7°C° 0 mm 3 m/s 758 mmHg 79%
    04:00 +5°C° 0 mm 3 m/s 758 mmHg 82%
    05:00 +5°C° 0 mm 3 m/s 758 mmHg 84%
    06:00 +7°C° 0 mm 3 m/s 759 mmHg 83%
    07:00 +8°C° 0 mm 3 m/s 759 mmHg 82%
    08:00 +9°C° 0 mm 3 m/s 760 mmHg 80%
    09:00 +10°C° 0 mm 3 m/s 759 mmHg 74%
    10:00 +10°C° 0 mm 3 m/s 759 mmHg 69%
    11:00 +11°C° 0 mm 3 m/s 759 mmHg 63%
    12:00 +11°C° 0 mm 3 m/s 759 mmHg 61%
    13:00 +11°C° 0 mm 4 m/s 759 mmHg 60%
    14:00 +11°C° 0 mm 4 m/s 759 mmHg 58%
    15:00 +10°C° 0 mm 4 m/s 759 mmHg 60%
    16:00 +10°C° 0 mm 3 m/s 758 mmHg 61%
    17:00 +9°C° 0 mm 3 m/s 758 mmHg 63%
    18:00 +8°C° 0 mm 3 m/s 758 mmHg 68%
    19:00 +6°C° 0 mm 2 m/s 759 mmHg 73%
    20:00 +5°C° 0 mm 2 m/s 759 mmHg 78%
    21:00 +5°C° 0 mm 2 m/s 759 mmHg 79%
    22:00 +4°C° 0 mm 2 m/s 759 mmHg 81%
    23:00 +4°C° 0 mm 2 m/s 758 mmHg 82%

    Demain, 2 Juin, Mardi

    Heure Température Précipitation Vent Pression Humidité
    00:00 +4°C° 0 mm 2 m/s 758 mmHg 81%
    01:00 +3°C° 0 mm 3 m/s 758 mmHg 80%
    02:00 +2°C° 0 mm 3 m/s 758 mmHg 79%
    03:00 +2°C° 0 mm 3 m/s 758 mmHg 79%
    04:00 +3°C° 0 mm 3 m/s 758 mmHg 79%
    05:00 +3°C° 0 mm 3 m/s 757 mmHg 79%
    06:00 +4°C° 0 mm 3 m/s 757 mmHg 75%
    07:00 +6°C° 0 mm 4 m/s 757 mmHg 71%
    08:00 +8°C° 0 mm 4 m/s 757 mmHg 67%
    09:00 +9°C° 0 mm 5 m/s 757 mmHg 63%
    10:00 +10°C° 0 mm 5 m/s 756 mmHg 58%
    11:00 +12°C° 0 mm 5 m/s 756 mmHg 53%
    12:00 +12°C° 0 mm 5 m/s 756 mmHg 54%
    13:00 +12°C° 0 mm 5 m/s 756 mmHg 55%
    14:00 +12°C° 0 mm 4 m/s 755 mmHg 56%
    15:00 +12°C° 0 mm 4 m/s 755 mmHg 55%
    16:00 +12°C° 0 mm 3 m/s 755 mmHg 54%
    17:00 +14°C° 0 mm 2 m/s 755 mmHg 52%
    18:00 +12°C° 0 mm 2 m/s 755 mmHg 57%
    19:00 +9°C° 0 mm 2 m/s 755 mmHg 61%
    20:00 +8°C° 0 mm 2 m/s 755 mmHg 65%
    21:00 +7°C° 0 mm 3 m/s 755 mmHg 65%
    22:00 +7°C° 0 mm 3 m/s 755 mmHg 66%
    23:00 +6°C° 0 mm 4 m/s 755 mmHg 67%

    Après-demain, 3 Juin, Mercredi

    Heure Température Précipitation Vent Pression Humidité
    00:00 +6°C° 0 mm 4 m/s 754 mmHg 71%
    01:00 +5°C° 0 mm 4 m/s 754 mmHg 76%
    02:00 +5°C° 0 mm 5 m/s 754 mmHg 80%
    03:00 +5°C° 0 mm 4 m/s 754 mmHg 82%
    04:00 +5°C° 0 mm 4 m/s 753 mmHg 83%
    05:00 +5°C° 0 mm 4 m/s 753 mmHg 84%
    06:00 +6°C° 0.4 mm 5 m/s 753 mmHg 86%
    07:00 +7°C° 0.4 mm 5 m/s 753 mmHg 88%
    08:00 +8°C° 0.4 mm 6 m/s 753 mmHg 89%
    09:00 +7°C° 0.5 mm 6 m/s 752 mmHg 90%
    10:00 +7°C° 0.5 mm 5 m/s 752 mmHg 91%
    11:00 +6°C° 0.5 mm 5 m/s 751 mmHg 91%
    12:00 +8°C° 0.1 mm 5 m/s 751 mmHg 88%
    13:00 +9°C° 0.1 mm 5 m/s 750 mmHg 84%
    14:00 +11°C° 0.1 mm 4 m/s 750 mmHg 80%
    15:00 +12°C° 0.1 mm 4 m/s 750 mmHg 79%
    16:00 +12°C° 0.1 mm 4 m/s 750 mmHg 77%
    17:00 +12°C° 0.1 mm 4 m/s 749 mmHg 76%
    18:00 +11°C° 0 mm 4 m/s 750 mmHg 79%
    19:00 +10°C° 0 mm 4 m/s 750 mmHg 82%
    20:00 +8°C° 0 mm 5 m/s 750 mmHg 85%
    21:00 +8°C° 0 mm 5 m/s 750 mmHg 85%
    22:00 +8°C° 0 mm 5 m/s 750 mmHg 86%
    23:00 +7°C° 0 mm 6 m/s 750 mmHg 86%

    4 Juin, Jeudi

    Heure Température Précipitation Vent Pression Humidité
    00:00 +7°C° 0 mm 6 m/s 750 mmHg 89%
    01:00 +7°C° 0 mm 5 m/s 750 mmHg 92%
    02:00 +7°C° 0 mm 5 m/s 750 mmHg 95%
    03:00 +7°C° 0 mm 5 m/s 751 mmHg 95%
    04:00 +7°C° 0 mm 5 m/s 751 mmHg 95%
    05:00 +7°C° 0 mm 5 m/s 751 mmHg 95%
    06:00 +8°C° 0 mm 5 m/s 752 mmHg 92%
    07:00 +10°C° 0 mm 5 m/s 752 mmHg 88%
    08:00 +12°C° 0 mm 5 m/s 752 mmHg 85%
    09:00 +14°C° 0 mm 4 m/s 752 mmHg 81%
    10:00 +15°C° 0 mm 4 m/s 752 mmHg 76%
    11:00 +17°C° 0 mm 4 m/s 752 mmHg 72%
    12:00 +18°C° 0 mm 4 m/s 752 mmHg 68%
    13:00 +19°C° 0 mm 3 m/s 752 mmHg 63%
    14:00 +20°C° 0 mm 3 m/s 752 mmHg 58%
    15:00 +20°C° 0 mm 3 m/s 752 mmHg 60%
    16:00 +19°C° 0 mm 3 m/s 752 mmHg 62%
    17:00 +19°C° 0 mm 3 m/s 753 mmHg 64%
    18:00 +18°C° 0 mm 3 m/s 753 mmHg 68%
    19:00 +16°C° 0 mm 3 m/s 754 mmHg 72%
    20:00 +14°C° 0 mm 3 m/s 754 mmHg 76%
    21:00 +13°C° 0 mm 4 m/s 755 mmHg 77%
    22:00 +13°C° 0 mm 4 m/s 755 mmHg 78%
    23:00 +13°C° 0 mm 5 m/s 755 mmHg 79%

    5 Juin, Vendredi

    Heure Température Précipitation Vent Pression Humidité
    00:00 +12°C° 0 mm 4 m/s 756 mmHg 82%
    01:00 +11°C° 0 mm 4 m/s 756 mmHg 84%
    02:00 +10°C° 0 mm 4 m/s 756 mmHg 87%
    03:00 +10°C° 0 mm 4 m/s 756 mmHg 88%
    04:00 +10°C° 0 mm 4 m/s 757 mmHg 89%
    05:00 +10°C° 0 mm 4 m/s 757 mmHg 90%
    06:00 +12°C° 0 mm 4 m/s 757 mmHg 87%
    07:00 +13°C° 0 mm 4 m/s 757 mmHg 84%
    08:00 +14°C° 0 mm 4 m/s 758 mmHg 82%
    09:00 +17°C° 0 mm 4 m/s 757 mmHg 78%
    10:00 +19°C° 0 mm 4 m/s 757 mmHg 74%
    11:00 +20°C° 0 mm 4 m/s 757 mmHg 70%
    12:00 +21°C° 0 mm 4 m/s 757 mmHg 70%
    13:00 +21°C° 0 mm 4 m/s 756 mmHg 70%
    14:00 +21°C° 0 mm 3 m/s 756 mmHg 71%
    15:00 +21°C° 0 mm 4 m/s 756 mmHg 70%
    16:00 +21°C° 0 mm 5 m/s 756 mmHg 69%
    17:00 +21°C° 0 mm 6 m/s 755 mmHg 68%
    18:00 +20°C° 0 mm 7 m/s 755 mmHg 74%
    19:00 +18°C° 0 mm 7 m/s 755 mmHg 80%
    20:00 +16°C° 0 mm 7 m/s 755 mmHg 86%
    21:00 +16°C° 0 mm 7 m/s 755 mmHg 88%
    22:00 +15°C° 0 mm 6 m/s 754 mmHg 91%
    23:00 +15°C° 0 mm 6 m/s 754 mmHg 94%

    6 Juin, Samedi

    Heure Température Précipitation Vent Pression Humidité
    00:00 +15°C° 0 mm 6 m/s 754 mmHg 94%
    01:00 +15°C° 0 mm 6 m/s 753 mmHg 94%
    02:00 +15°C° 0 mm 6 m/s 752 mmHg 93%
    03:00 +15°C° 2.6 mm 7 m/s 752 mmHg 95%
    04:00 +15°C° 2.6 mm 8 m/s 752 mmHg 96%
    05:00 +15°C° 2.6 mm 9 m/s 751 mmHg 97%
    06:00 +15°C° 0.8 mm 9 m/s 751 mmHg 96%
    07:00 +13°C° 0.8 mm 9 m/s 750 mmHg 95%
    08:00 +13°C° 0.8 mm 9 m/s 750 mmHg 94%
    09:00 +15°C° 0 mm 9 m/s 750 mmHg 90%
    10:00 +16°C° 0 mm 10 m/s 750 mmHg 87%
    11:00 +17°C° 0 mm 10 m/s 750 mmHg 84%
    12:00 +18°C° 0 mm 9 m/s 750 mmHg 82%
    13:00 +18°C° 0 mm 9 m/s 749 mmHg 79%
    14:00 +20°C° 0 mm 8 m/s 749 mmHg 77%
    15:00 +20°C° 0 mm 8 m/s 749 mmHg 75%
    16:00 +20°C° 0 mm 8 m/s 749 mmHg 72%
    17:00 +20°C° 0 mm 7 m/s 749 mmHg 70%
    18:00 +19°C° 0 mm 6 m/s 750 mmHg 74%
    19:00 +16°C° 0 mm 5 m/s 750 mmHg 78%
    20:00 +15°C° 0 mm 4 m/s 750 mmHg 82%
    21:00 +15°C° 0 mm 4 m/s 750 mmHg 79%
    22:00 +14°C° 0 mm 4 m/s 751 mmHg 76%
    23:00 +14°C° 0 mm 4 m/s 751 mmHg 73%
    Voir plus